Year,Month,Day,Hour,Minute,Value (Times are PST for temperature in C)
2021,03,30,00,00,0.40
2021,03,30,00,01,0.40
2021,03,30,00,02,0.40
2021,03,30,00,03,0.40
2021,03,30,00,04,0.40
2021,03,30,00,05,0.40
2021,03,30,00,06,0.30
2021,03,30,00,07,0.30
2021,03,30,00,08,0.30
2021,03,30,00,09,0.30
2021,03,30,00,10,0.30
2021,03,30,00,11,0.30
2021,03,30,00,12,0.30
2021,03,30,00,13,0.30
2021,03,30,00,14,0.30
2021,03,30,00,15,0.30
2021,03,30,00,16,0.30
2021,03,30,00,17,0.30
2021,03,30,00,18,0.30
2021,03,30,00,19,0.30
2021,03,30,00,20,0.30
2021,03,30,00,21,0.30
2021,03,30,00,22,0.20
2021,03,30,00,23,0.20
2021,03,30,00,24,0.20
2021,03,30,00,25,0.20
2021,03,30,00,26,0.20
2021,03,30,00,27,0.20
2021,03,30,00,28,0.20
2021,03,30,00,29,0.20
2021,03,30,00,30,0.10
2021,03,30,00,31,0.10
2021,03,30,00,32,0.10
2021,03,30,00,33,0.10
2021,03,30,00,34,0.10
2021,03,30,00,35,0.10
2021,03,30,00,36,0.00
2021,03,30,00,37,0.00
2021,03,30,00,38,0.00
2021,03,30,00,39,0.00
2021,03,30,00,40,0.00
2021,03,30,00,41,0.00
2021,03,30,00,42,0.00
2021,03,30,00,43,0.00
2021,03,30,00,44,0.00
2021,03,30,00,45,0.00
2021,03,30,00,46,0.00
2021,03,30,00,47,0.00
2021,03,30,00,48,0.00
2021,03,30,00,49,0.10
2021,03,30,00,50,0.00
2021,03,30,00,51,0.00
2021,03,30,00,52,0.10
2021,03,30,00,53,0.10
2021,03,30,00,54,0.10
2021,03,30,00,55,0.10
2021,03,30,00,56,0.10
2021,03,30,00,57,0.10
2021,03,30,00,58,0.10
2021,03,30,00,59,0.00
2021,03,30,01,00,0.00
2021,03,30,01,01,0.00
2021,03,30,01,02,0.00
2021,03,30,01,03,-0.10
2021,03,30,01,04,-0.10
2021,03,30,01,05,-0.10
2021,03,30,01,06,-0.10
2021,03,30,01,07,-0.10
2021,03,30,01,08,-0.10
2021,03,30,01,09,-0.10
2021,03,30,01,10,-0.10
2021,03,30,01,11,-0.10
2021,03,30,01,12,-0.10
2021,03,30,01,13,-0.10
2021,03,30,01,14,-0.10
2021,03,30,01,15,-0.10
2021,03,30,01,16,-0.10
2021,03,30,01,17,-0.10
2021,03,30,01,18,-0.10
2021,03,30,01,19,-0.10
2021,03,30,01,20,-0.10
2021,03,30,01,21,-0.20
2021,03,30,01,22,-0.20
2021,03,30,01,23,-0.20
2021,03,30,01,24,-0.20
2021,03,30,01,25,-0.20
2021,03,30,01,26,-0.20
2021,03,30,01,27,-0.20
2021,03,30,01,28,-0.20
2021,03,30,01,29,-0.20
2021,03,30,01,30,-0.20
2021,03,30,01,31,-0.20
2021,03,30,01,32,-0.30
2021,03,30,01,33,-0.30
2021,03,30,01,34,-0.30
2021,03,30,01,35,-0.30
2021,03,30,01,36,-0.30
2021,03,30,01,37,-0.30
2021,03,30,01,38,-0.30
2021,03,30,01,39,-0.30
2021,03,30,01,40,-0.30
2021,03,30,01,41,-0.30
2021,03,30,01,42,-0.30
2021,03,30,01,43,-0.30
2021,03,30,01,44,-0.30
2021,03,30,01,45,-0.30
2021,03,30,01,46,-0.30
2021,03,30,01,47,-0.40
2021,03,30,01,48,-0.30
2021,03,30,01,49,-0.40
2021,03,30,01,50,-0.30
2021,03,30,01,51,-0.40
2021,03,30,01,52,-0.40
2021,03,30,01,53,-0.40
2021,03,30,01,54,-0.40
2021,03,30,01,55,-0.40
2021,03,30,01,56,-0.40
2021,03,30,01,57,-0.40
2021,03,30,01,58,-0.40
2021,03,30,01,59,-0.40
2021,03,30,02,00,-0.40
2021,03,30,02,01,-0.40
2021,03,30,02,02,-0.40
2021,03,30,02,03,-0.50
2021,03,30,02,04,-0.50
2021,03,30,02,05,-0.50
2021,03,30,02,06,-0.50
2021,03,30,02,07,-0.50
2021,03,30,02,08,-0.60
2021,03,30,02,09,-0.60
2021,03,30,02,10,-0.60
2021,03,30,02,11,-0.60
2021,03,30,02,12,-0.60
2021,03,30,02,13,-0.70
2021,03,30,02,14,-0.70
2021,03,30,02,15,-0.70
2021,03,30,02,16,-0.70
2021,03,30,02,17,-0.70
2021,03,30,02,18,-0.70
2021,03,30,02,19,-0.70
2021,03,30,02,20,-0.70
2021,03,30,02,21,-0.70
2021,03,30,02,22,-0.70
2021,03,30,02,23,-0.70
2021,03,30,02,24,-0.70
2021,03,30,02,25,-0.70
2021,03,30,02,26,-0.70
2021,03,30,02,27,-0.70
2021,03,30,02,28,-0.70
2021,03,30,02,29,-0.80
2021,03,30,02,30,-0.80
2021,03,30,02,31,-0.80
2021,03,30,02,32,-0.80
2021,03,30,02,33,-0.80
2021,03,30,02,34,-0.80
2021,03,30,02,35,-0.80
2021,03,30,02,36,-0.80
2021,03,30,02,37,-0.80
2021,03,30,02,38,-0.80
2021,03,30,02,39,-0.90
2021,03,30,02,40,-0.90
2021,03,30,02,41,-0.90
2021,03,30,02,42,-0.90
2021,03,30,02,43,-0.90
2021,03,30,02,44,-0.90
2021,03,30,02,45,-0.90
2021,03,30,02,46,-0.90
2021,03,30,02,47,-0.90
2021,03,30,02,48,-0.90
2021,03,30,02,49,-0.90
2021,03,30,02,50,-0.90
2021,03,30,02,51,-0.90
2021,03,30,02,52,-1.00
2021,03,30,02,53,-1.00
2021,03,30,02,54,-1.00
2021,03,30,02,55,-1.00
2021,03,30,02,56,-1.00
2021,03,30,02,57,-1.10
2021,03,30,02,58,-1.10
2021,03,30,02,59,-1.10
2021,03,30,03,00,-1.10
2021,03,30,03,01,-1.10
2021,03,30,03,02,-1.10
2021,03,30,03,03,-1.10
2021,03,30,03,04,-1.10
2021,03,30,03,05,-1.10
2021,03,30,03,06,-1.10
2021,03,30,03,07,-1.10
2021,03,30,03,08,-1.10
2021,03,30,03,09,-1.10
2021,03,30,03,10,-1.10
2021,03,30,03,11,-1.10
2021,03,30,03,12,-1.10
2021,03,30,03,13,-1.10
2021,03,30,03,14,-1.10
2021,03,30,03,15,-1.10
2021,03,30,03,16,-1.10
2021,03,30,03,17,-1.00
2021,03,30,03,18,-1.00
2021,03,30,03,19,-1.00
2021,03,30,03,20,-1.00
2021,03,30,03,21,-0.90
2021,03,30,03,22,-0.90
2021,03,30,03,23,-0.90
2021,03,30,03,24,-0.90
2021,03,30,03,25,-0.90
2021,03,30,03,26,-0.90
2021,03,30,03,27,-0.90
2021,03,30,03,28,-0.90
2021,03,30,03,29,-0.90
2021,03,30,03,30,-0.90
2021,03,30,03,31,-0.90
2021,03,30,03,32,-0.90
2021,03,30,03,33,-0.90
2021,03,30,03,34,-0.90
2021,03,30,03,35,-0.90
2021,03,30,03,36,-0.90
2021,03,30,03,37,-0.90
2021,03,30,03,38,-0.90
2021,03,30,03,39,-0.90
2021,03,30,03,40,-0.90
2021,03,30,03,41,-1.00
2021,03,30,03,42,-1.00
2021,03,30,03,43,-1.00
2021,03,30,03,44,-1.00
2021,03,30,03,45,-1.00
2021,03,30,03,46,-1.00
2021,03,30,03,47,-1.00
2021,03,30,03,48,-1.00
2021,03,30,03,49,-1.00
2021,03,30,03,50,-1.00
2021,03,30,03,51,-1.00
2021,03,30,03,52,-1.00
2021,03,30,03,53,-1.00
2021,03,30,03,54,-1.00
2021,03,30,03,55,-1.00
2021,03,30,03,56,-1.00
2021,03,30,03,57,-1.00
2021,03,30,03,58,-1.00
2021,03,30,03,59,-1.00
2021,03,30,04,00,-1.00
2021,03,30,04,01,-1.00
2021,03,30,04,02,-1.00
2021,03,30,04,03,-1.00
2021,03,30,04,04,-0.90
2021,03,30,04,05,-0.90
2021,03,30,04,06,-1.00
2021,03,30,04,07,-1.00
2021,03,30,04,08,-1.00
2021,03,30,04,09,-1.00
2021,03,30,04,10,-1.00
2021,03,30,04,11,-1.00
2021,03,30,04,12,-1.10
2021,03,30,04,13,-1.10
2021,03,30,04,14,-1.10
2021,03,30,04,15,-1.10
2021,03,30,04,16,-1.10
2021,03,30,04,17,-1.10
2021,03,30,04,18,-1.10
2021,03,30,04,19,-1.10
2021,03,30,04,20,-1.20
2021,03,30,04,21,-1.20
2021,03,30,04,22,-1.20
2021,03,30,04,23,-1.20
2021,03,30,04,24,-1.20
2021,03,30,04,25,-1.20
2021,03,30,04,26,-1.20
2021,03,30,04,27,-1.20
2021,03,30,04,28,-1.20
2021,03,30,04,29,-1.20
2021,03,30,04,30,-1.20
2021,03,30,04,31,-1.20
2021,03,30,04,32,-1.20
2021,03,30,04,33,-1.20
2021,03,30,04,34,-1.20
2021,03,30,04,35,-1.20
2021,03,30,04,36,-1.20
2021,03,30,04,37,-1.20
2021,03,30,04,38,-1.20
2021,03,30,04,39,-1.20
2021,03,30,04,40,-1.20
2021,03,30,04,41,-1.20
2021,03,30,04,42,-1.20
2021,03,30,04,43,-1.20
2021,03,30,04,44,-1.20
2021,03,30,04,45,-1.20
2021,03,30,04,46,-1.20
2021,03,30,04,47,-1.20
2021,03,30,04,48,-1.20
2021,03,30,04,49,-1.20
2021,03,30,04,50,-1.20
2021,03,30,04,51,-1.20
2021,03,30,04,52,-1.20
2021,03,30,04,53,-1.20
2021,03,30,04,54,-1.20
2021,03,30,04,55,-1.20
2021,03,30,04,56,-1.20
2021,03,30,04,57,-1.20
2021,03,30,04,58,-1.20
2021,03,30,04,59,-1.20
2021,03,30,05,00,-1.20
2021,03,30,05,01,-1.20
2021,03,30,05,02,-1.20
2021,03,30,05,03,-1.20
2021,03,30,05,04,-1.20
2021,03,30,05,05,-1.20
2021,03,30,05,06,-1.20
2021,03,30,05,07,-1.20
2021,03,30,05,08,-1.20
2021,03,30,05,09,-1.20
2021,03,30,05,10,-1.20
2021,03,30,05,11,-1.20
2021,03,30,05,12,-1.20
2021,03,30,05,13,-1.20
2021,03,30,05,14,-1.20
2021,03,30,05,15,-1.20
2021,03,30,05,16,-1.20
2021,03,30,05,17,-1.20
2021,03,30,05,18,-1.20
2021,03,30,05,19,-1.20
2021,03,30,05,20,-1.20
2021,03,30,05,21,-1.20
2021,03,30,05,22,-1.20
2021,03,30,05,23,-1.20
2021,03,30,05,24,-1.20
2021,03,30,05,25,-1.20
2021,03,30,05,26,-1.20
2021,03,30,05,27,-1.20
2021,03,30,05,28,-1.20
2021,03,30,05,29,-1.20
2021,03,30,05,30,-1.20
2021,03,30,05,31,-1.30
2021,03,30,05,32,-1.30
2021,03,30,05,33,-1.30
2021,03,30,05,34,-1.30
2021,03,30,05,35,-1.30
2021,03,30,05,36,-1.30
2021,03,30,05,37,-1.30
2021,03,30,05,38,-1.30
2021,03,30,05,39,-1.40
2021,03,30,05,40,-1.40
2021,03,30,05,41,-1.40
2021,03,30,05,42,-1.40
2021,03,30,05,43,-1.40
2021,03,30,05,44,-1.40
2021,03,30,05,45,-1.40
2021,03,30,05,46,-1.40
2021,03,30,05,47,-1.40
2021,03,30,05,48,-1.40
2021,03,30,05,49,-1.40
2021,03,30,05,50,-1.30
2021,03,30,05,51,-1.30
2021,03,30,05,52,-1.40
2021,03,30,05,53,-1.40
2021,03,30,05,54,-1.40
2021,03,30,05,55,-1.40
2021,03,30,05,56,-1.40
2021,03,30,05,57,-1.40
2021,03,30,05,58,-1.40
2021,03,30,05,59,-1.40
2021,03,30,06,00,-1.40
2021,03,30,06,01,-1.40
2021,03,30,06,02,-1.40
2021,03,30,06,03,-1.40
2021,03,30,06,04,-1.40
2021,03,30,06,05,-1.40
2021,03,30,06,06,-1.40
2021,03,30,06,07,-1.40
2021,03,30,06,08,-1.40
2021,03,30,06,09,-1.50
2021,03,30,06,10,-1.50
2021,03,30,06,11,-1.50
2021,03,30,06,12,-1.50
2021,03,30,06,13,-1.50
2021,03,30,06,14,-1.50
2021,03,30,06,15,-1.50
2021,03,30,06,16,-1.50
2021,03,30,06,17,-1.50
2021,03,30,06,18,-1.50
2021,03,30,06,19,-1.50
2021,03,30,06,20,-1.50
2021,03,30,06,21,-1.50
2021,03,30,06,22,-1.50
2021,03,30,06,23,-1.50
2021,03,30,06,24,-1.50
2021,03,30,06,25,-1.50
2021,03,30,06,26,-1.50
2021,03,30,06,27,-1.50
2021,03,30,06,28,-1.50
2021,03,30,06,29,-1.50
2021,03,30,06,30,-1.50
2021,03,30,06,31,-1.50
2021,03,30,06,32,-1.50
2021,03,30,06,33,-1.50
2021,03,30,06,34,-1.50
2021,03,30,06,35,-1.50
2021,03,30,06,36,-1.50
2021,03,30,06,37,-1.50
2021,03,30,06,38,-1.50
2021,03,30,06,39,-1.50
2021,03,30,06,40,-1.50
2021,03,30,06,41,-1.50
2021,03,30,06,42,-1.50
2021,03,30,06,43,-1.50
2021,03,30,06,44,-1.50
2021,03,30,06,45,-1.50
2021,03,30,06,46,-1.50
2021,03,30,06,47,-1.50
2021,03,30,06,48,-1.40
2021,03,30,06,49,-1.40
2021,03,30,06,50,-1.40
2021,03,30,06,51,-1.40
2021,03,30,06,52,-1.40
2021,03,30,06,53,-1.40
2021,03,30,06,54,-1.40
2021,03,30,06,55,-1.40
2021,03,30,06,56,-1.40
2021,03,30,06,57,-1.40
2021,03,30,06,58,-1.40
2021,03,30,06,59,-1.40
2021,03,30,07,00,-1.50
2021,03,30,07,01,-1.40
2021,03,30,07,02,-1.50
2021,03,30,07,03,-1.40
2021,03,30,07,04,-1.50
2021,03,30,07,05,-1.50
2021,03,30,07,06,-1.50
2021,03,30,07,07,-1.50
2021,03,30,07,08,-1.50
2021,03,30,07,09,-1.50
2021,03,30,07,10,-1.50
2021,03,30,07,11,-1.50
2021,03,30,07,12,-1.50
2021,03,30,07,13,-1.50
2021,03,30,07,14,-1.50
2021,03,30,07,15,-1.50
2021,03,30,07,16,-1.50
2021,03,30,07,17,-1.50
2021,03,30,07,18,-1.50
2021,03,30,07,19,-1.50
2021,03,30,07,20,-1.50
2021,03,30,07,21,-1.50
2021,03,30,07,22,-1.50
2021,03,30,07,23,-1.50
2021,03,30,07,24,-1.50
2021,03,30,07,25,-1.50
2021,03,30,07,26,-1.40
2021,03,30,07,27,-1.40
2021,03,30,07,28,-1.40
2021,03,30,07,29,-1.40
2021,03,30,07,30,-1.40
2021,03,30,07,31,-1.40
2021,03,30,07,32,-1.40
2021,03,30,07,33,-1.30
2021,03,30,07,34,-1.30
2021,03,30,07,35,-1.30
2021,03,30,07,36,-1.30
2021,03,30,07,37,-1.30
2021,03,30,07,38,-1.30
2021,03,30,07,39,-1.30
2021,03,30,07,40,-1.30
2021,03,30,07,41,-1.30
2021,03,30,07,42,-1.20
2021,03,30,07,43,-1.20
2021,03,30,07,44,-1.20
2021,03,30,07,45,-1.20
2021,03,30,07,46,-1.20
2021,03,30,07,47,-1.20
2021,03,30,07,48,-1.20
2021,03,30,07,49,-1.20
2021,03,30,07,50,-1.20
2021,03,30,07,51,-1.20
2021,03,30,07,52,-1.10
2021,03,30,07,53,-1.10
2021,03,30,07,54,-1.10
2021,03,30,07,55,-1.10
2021,03,30,07,56,-1.10
2021,03,30,07,57,-1.10
2021,03,30,07,58,-1.10
2021,03,30,07,59,-1.00
2021,03,30,08,00,-1.00
2021,03,30,08,01,-1.00
2021,03,30,08,02,-0.90
2021,03,30,08,03,-0.90
2021,03,30,08,04,-0.90
2021,03,30,08,05,-0.90
2021,03,30,08,06,-0.90
2021,03,30,08,07,-0.90
2021,03,30,08,08,-0.90
2021,03,30,08,09,-0.90
2021,03,30,08,10,-0.80
2021,03,30,08,11,-0.80
2021,03,30,08,12,-0.80
2021,03,30,08,13,-0.80
2021,03,30,08,14,-0.80
2021,03,30,08,15,-0.80
2021,03,30,08,16,-0.80
2021,03,30,08,17,-0.80
2021,03,30,08,18,-0.70
2021,03,30,08,19,-0.70
2021,03,30,08,20,-0.70
2021,03,30,08,21,-0.70
2021,03,30,08,22,-0.70
2021,03,30,08,23,-0.70
2021,03,30,08,24,-0.60
2021,03,30,08,25,-0.60
2021,03,30,08,26,-0.60
2021,03,30,08,27,-0.60
2021,03,30,08,28,-0.50
2021,03,30,08,29,-0.50
2021,03,30,08,30,-0.40
2021,03,30,08,31,-0.40
2021,03,30,08,32,-0.30
2021,03,30,08,33,-0.30
2021,03,30,08,34,-0.20
2021,03,30,08,35,-0.20
2021,03,30,08,36,-0.20
2021,03,30,08,37,-0.10
2021,03,30,08,38,0.00
2021,03,30,08,39,0.00
2021,03,30,08,40,0.10
2021,03,30,08,41,0.20
2021,03,30,08,42,0.30
2021,03,30,08,43,0.40
2021,03,30,08,44,0.50
2021,03,30,08,45,0.60
2021,03,30,08,46,0.70
2021,03,30,08,47,0.80
2021,03,30,08,48,0.80
2021,03,30,08,49,0.90
2021,03,30,08,50,1.00
2021,03,30,08,51,1.10
2021,03,30,08,52,1.10
2021,03,30,08,53,1.20
2021,03,30,08,54,1.30
2021,03,30,08,55,1.30
2021,03,30,08,56,1.40
2021,03,30,08,57,1.50
2021,03,30,08,58,1.50
2021,03,30,08,59,1.60
2021,03,30,09,00,1.70
2021,03,30,09,01,1.80
2021,03,30,09,02,1.90
2021,03,30,09,03,2.00
2021,03,30,09,04,2.10
2021,03,30,09,05,2.20
2021,03,30,09,06,2.20
2021,03,30,09,07,2.30
2021,03,30,09,08,2.40
2021,03,30,09,09,2.50
2021,03,30,09,10,2.60
2021,03,30,09,11,2.70
2021,03,30,09,12,2.80
2021,03,30,09,13,2.80
2021,03,30,09,14,2.90
2021,03,30,09,15,3.10
2021,03,30,09,16,3.20
2021,03,30,09,17,3.20
2021,03,30,09,18,3.30
2021,03,30,09,19,3.30
2021,03,30,09,20,3.40
2021,03,30,09,21,3.50
2021,03,30,09,22,3.50
2021,03,30,09,23,3.60
2021,03,30,09,24,3.70
2021,03,30,09,25,3.80
2021,03,30,09,26,3.90
2021,03,30,09,27,3.90
2021,03,30,09,28,4.00
2021,03,30,09,29,4.10
2021,03,30,09,30,4.20
2021,03,30,09,31,4.30
2021,03,30,09,32,4.40
2021,03,30,09,33,4.50
2021,03,30,09,34,4.70
2021,03,30,09,35,4.80
2021,03,30,09,36,4.90
2021,03,30,09,37,5.10
2021,03,30,09,38,5.20
2021,03,30,09,39,5.30
2021,03,30,09,40,5.50
2021,03,30,09,41,5.60
2021,03,30,09,42,5.70
2021,03,30,09,43,5.90
2021,03,30,09,44,6.00
2021,03,30,09,45,6.10
2021,03,30,09,46,6.20
2021,03,30,09,47,6.30
2021,03,30,09,48,6.50
2021,03,30,09,49,6.60
2021,03,30,09,50,6.70
2021,03,30,09,51,6.80
2021,03,30,09,52,6.90
2021,03,30,09,53,7.10
2021,03,30,09,54,7.10
2021,03,30,09,55,7.20
2021,03,30,09,56,7.10
2021,03,30,09,57,7.00
2021,03,30,09,58,7.00
2021,03,30,09,59,6.90
2021,03,30,10,00,6.90
2021,03,30,10,01,6.90
2021,03,30,10,02,6.90
2021,03,30,10,03,6.90
2021,03,30,10,04,7.00
2021,03,30,10,05,7.00
2021,03,30,10,06,7.10
2021,03,30,10,07,7.10
2021,03,30,10,08,7.10
2021,03,30,10,09,7.20
2021,03,30,10,10,7.20
2021,03,30,10,11,7.30
2021,03,30,10,12,7.30
2021,03,30,10,13,7.40
2021,03,30,10,14,7.50
2021,03,30,10,15,7.50
2021,03,30,10,16,7.50
2021,03,30,10,17,7.60
2021,03,30,10,18,7.60
2021,03,30,10,19,7.60
2021,03,30,10,20,7.70
2021,03,30,10,21,7.70
2021,03,30,10,22,7.70
2021,03,30,10,23,7.80
2021,03,30,10,24,7.80
2021,03,30,10,25,7.80
2021,03,30,10,26,7.80
2021,03,30,10,27,7.80
2021,03,30,10,28,7.80
2021,03,30,10,29,7.80
2021,03,30,10,30,7.90
2021,03,30,10,31,7.90
2021,03,30,10,32,7.90
2021,03,30,10,33,8.00
2021,03,30,10,34,8.10
2021,03,30,10,35,8.20
2021,03,30,10,36,8.20
2021,03,30,10,37,8.30
2021,03,30,10,38,8.40
2021,03,30,10,39,8.50
2021,03,30,10,40,8.50
2021,03,30,10,41,8.50
2021,03,30,10,42,8.40
2021,03,30,10,43,8.40
2021,03,30,10,44,8.50
2021,03,30,10,45,8.50
2021,03,30,10,46,8.60
2021,03,30,10,47,8.60
2021,03,30,10,48,8.60
2021,03,30,10,49,8.60
2021,03,30,10,50,8.60
2021,03,30,10,51,8.70
2021,03,30,10,52,8.70
2021,03,30,10,53,8.80
2021,03,30,10,54,8.80
2021,03,30,10,55,8.90
2021,03,30,10,56,9.00
2021,03,30,10,57,9.00
2021,03,30,10,58,9.10
2021,03,30,10,59,9.20
2021,03,30,11,00,9.20
2021,03,30,11,01,9.30
2021,03,30,11,02,9.40
2021,03,30,11,03,9.40
2021,03,30,11,04,9.40
2021,03,30,11,05,9.50
2021,03,30,11,06,9.60
2021,03,30,11,07,9.60
2021,03,30,11,08,9.70
2021,03,30,11,09,9.80
2021,03,30,11,10,9.80
2021,03,30,11,11,9.80
2021,03,30,11,12,9.80
2021,03,30,11,13,9.90
2021,03,30,11,14,9.90
2021,03,30,11,15,9.90
2021,03,30,11,16,9.90
2021,03,30,11,17,9.90
2021,03,30,11,18,9.90
2021,03,30,11,19,9.90
2021,03,30,11,20,9.90
2021,03,30,11,21,9.90
2021,03,30,11,22,9.90
2021,03,30,11,23,9.90
2021,03,30,11,24,9.70
2021,03,30,11,25,9.70
2021,03,30,11,26,9.70
2021,03,30,11,27,9.70
2021,03,30,11,28,9.60
2021,03,30,11,29,9.60
2021,03,30,11,30,9.50
2021,03,30,11,31,9.50
2021,03,30,11,32,9.40
2021,03,30,11,33,9.40
2021,03,30,11,34,9.40
2021,03,30,11,35,9.40
2021,03,30,11,36,9.40
2021,03,30,11,37,9.50
2021,03,30,11,38,9.60
2021,03,30,11,39,9.60
2021,03,30,11,40,9.70
2021,03,30,11,41,9.70
2021,03,30,11,42,9.70
2021,03,30,11,43,9.80
2021,03,30,11,44,9.80
2021,03,30,11,45,9.90
2021,03,30,11,46,9.90
2021,03,30,11,47,10.00
2021,03,30,11,48,10.00
2021,03,30,11,49,10.00
2021,03,30,11,50,10.10
2021,03,30,11,51,10.10
2021,03,30,11,52,10.00
2021,03,30,11,53,10.00
2021,03,30,11,54,10.00
2021,03,30,11,55,10.00
2021,03,30,11,56,9.90
2021,03,30,11,57,9.90
2021,03,30,11,58,9.90
2021,03,30,11,59,9.90
2021,03,30,12,00,9.80
2021,03,30,12,01,9.80
2021,03,30,12,02,9.80
2021,03,30,12,03,9.80
2021,03,30,12,04,9.90
2021,03,30,12,05,10.00
2021,03,30,12,06,10.00
2021,03,30,12,07,10.10
2021,03,30,12,08,10.20
2021,03,30,12,09,10.20
2021,03,30,12,10,10.20
2021,03,30,12,11,10.10
2021,03,30,12,12,10.00
2021,03,30,12,13,9.90
2021,03,30,12,14,9.90
2021,03,30,12,15,9.80
2021,03,30,12,16,9.80
2021,03,30,12,17,9.80
2021,03,30,12,18,9.80
2021,03,30,12,19,9.90
2021,03,30,12,20,9.90
2021,03,30,12,21,9.90
2021,03,30,12,22,9.90
2021,03,30,12,23,9.80
2021,03,30,12,24,9.80
2021,03,30,12,25,9.80
2021,03,30,12,26,9.80
2021,03,30,12,27,9.80
2021,03,30,12,28,9.80
2021,03,30,12,29,9.70
2021,03,30,12,30,9.70
2021,03,30,12,31,9.70
2021,03,30,12,32,9.70
2021,03,30,12,33,9.70
2021,03,30,12,34,9.80
2021,03,30,12,35,9.90
2021,03,30,12,36,9.90
2021,03,30,12,37,10.00
2021,03,30,12,38,10.00
2021,03,30,12,39,10.00
2021,03,30,12,40,9.90
2021,03,30,12,41,9.90
2021,03,30,12,42,9.90
2021,03,30,12,43,9.90
2021,03,30,12,44,9.90
2021,03,30,12,45,9.90
2021,03,30,12,46,9.90
2021,03,30,12,47,9.90
2021,03,30,12,48,9.80
2021,03,30,12,49,9.80
2021,03,30,12,50,9.90
2021,03,30,12,51,9.90
2021,03,30,12,52,9.80
2021,03,30,12,53,9.80
2021,03,30,12,54,9.80
2021,03,30,12,55,9.70
2021,03,30,12,56,9.70
2021,03,30,12,57,9.70
2021,03,30,12,58,9.60
2021,03,30,12,59,9.50
2021,03,30,13,00,9.50
2021,03,30,13,01,9.50
2021,03,30,13,02,9.40
2021,03,30,13,03,9.40
2021,03,30,13,04,9.40
2021,03,30,13,05,9.40
2021,03,30,13,06,9.30
2021,03,30,13,07,9.30
2021,03,30,13,08,9.30
2021,03,30,13,09,9.20
2021,03,30,13,10,9.20
2021,03,30,13,11,9.20
2021,03,30,13,12,9.20
2021,03,30,13,13,9.20
2021,03,30,13,14,9.20
2021,03,30,13,15,9.30
2021,03,30,13,16,9.30
2021,03,30,13,17,9.30
2021,03,30,13,18,9.30
2021,03,30,13,19,9.30
2021,03,30,13,20,9.30
2021,03,30,13,21,9.30
2021,03,30,13,22,9.30
2021,03,30,13,23,9.20
2021,03,30,13,24,9.20
2021,03,30,13,25,9.20
2021,03,30,13,26,9.20
2021,03,30,13,27,9.10
2021,03,30,13,28,9.10
2021,03,30,13,29,9.10
2021,03,30,13,30,9.10
2021,03,30,13,31,9.10
2021,03,30,13,32,9.20
2021,03,30,13,33,9.20
2021,03,30,13,34,9.20
2021,03,30,13,35,9.20
2021,03,30,13,36,9.20
2021,03,30,13,37,9.20
2021,03,30,13,38,9.20
2021,03,30,13,39,9.30
2021,03,30,13,40,9.30
2021,03,30,13,41,9.30
2021,03,30,13,42,9.30
2021,03,30,13,43,9.30
2021,03,30,13,44,9.30
2021,03,30,13,45,9.30
2021,03,30,13,46,9.40
2021,03,30,13,47,9.40
2021,03,30,13,48,9.50
2021,03,30,13,49,9.60
2021,03,30,13,50,9.60
2021,03,30,13,51,9.70
2021,03,30,13,52,9.80
2021,03,30,13,53,9.80
2021,03,30,13,54,9.80
2021,03,30,13,55,9.80
2021,03,30,13,56,9.80
2021,03,30,13,57,9.90
2021,03,30,13,58,9.90
2021,03,30,13,59,9.80
2021,03,30,14,00,9.80
2021,03,30,14,01,9.80
2021,03,30,14,02,9.80
2021,03,30,14,03,9.80
2021,03,30,14,04,9.80
2021,03,30,14,05,9.80
2021,03,30,14,06,9.80
2021,03,30,14,07,9.80
2021,03,30,14,08,9.90
2021,03,30,14,09,9.90
2021,03,30,14,10,9.90
2021,03,30,14,11,9.90
2021,03,30,14,12,9.90
2021,03,30,14,13,9.90
2021,03,30,14,14,9.90
2021,03,30,14,15,9.90
2021,03,30,14,16,9.80
2021,03,30,14,17,9.80
2021,03,30,14,18,9.80
2021,03,30,14,19,9.80
2021,03,30,14,20,9.90
2021,03,30,14,21,9.90
2021,03,30,14,22,9.90
2021,03,30,14,23,9.90
2021,03,30,14,24,9.90
2021,03,30,14,25,9.90
2021,03,30,14,26,10.00
2021,03,30,14,27,10.00
2021,03,30,14,28,10.10
2021,03,30,14,29,10.10
2021,03,30,14,30,10.10
2021,03,30,14,31,10.10
2021,03,30,14,32,10.10
2021,03,30,14,33,10.10
2021,03,30,14,34,10.00
2021,03,30,14,35,10.00
2021,03,30,14,36,10.00
2021,03,30,14,37,10.00
2021,03,30,14,38,10.00
2021,03,30,14,39,10.00
2021,03,30,14,40,10.00
2021,03,30,14,41,10.00
2021,03,30,14,42,10.00
2021,03,30,14,43,10.00
2021,03,30,14,44,9.90
2021,03,30,14,45,9.90
2021,03,30,14,46,9.80
2021,03,30,14,47,9.80
2021,03,30,14,48,9.70
2021,03,30,14,49,9.70
2021,03,30,14,50,9.70
2021,03,30,14,51,9.70
2021,03,30,14,52,9.80
2021,03,30,14,53,9.80
2021,03,30,14,54,9.80
2021,03,30,14,55,9.80
2021,03,30,14,56,9.80
2021,03,30,14,57,9.80
2021,03,30,14,58,9.80
2021,03,30,14,59,9.80
2021,03,30,15,00,9.80
2021,03,30,15,01,9.80
2021,03,30,15,02,9.80
2021,03,30,15,03,9.80
2021,03,30,15,04,9.80
2021,03,30,15,05,9.80
2021,03,30,15,06,9.80
2021,03,30,15,07,9.80
2021,03,30,15,08,9.80
2021,03,30,15,09,9.80
2021,03,30,15,10,9.80
2021,03,30,15,11,9.80
2021,03,30,15,12,9.90
2021,03,30,15,13,9.90
2021,03,30,15,14,9.90
2021,03,30,15,15,9.90
2021,03,30,15,16,9.90
2021,03,30,15,17,9.90
2021,03,30,15,18,9.90
2021,03,30,15,19,9.90
2021,03,30,15,20,9.90
2021,03,30,15,21,9.80
2021,03,30,15,22,9.80
2021,03,30,15,23,9.80
2021,03,30,15,24,9.80
2021,03,30,15,25,9.80
2021,03,30,15,26,9.80
2021,03,30,15,27,9.80
2021,03,30,15,28,9.80
2021,03,30,15,29,9.80
2021,03,30,15,30,9.70
2021,03,30,15,31,9.80
2021,03,30,15,32,9.80
2021,03,30,15,33,9.80
2021,03,30,15,34,9.90
2021,03,30,15,35,9.90
2021,03,30,15,36,10.00
2021,03,30,15,37,10.10
2021,03,30,15,38,10.10
2021,03,30,15,39,10.10
2021,03,30,15,40,10.10
2021,03,30,15,41,10.10
2021,03,30,15,42,10.00
2021,03,30,15,43,10.00
2021,03,30,15,44,10.00
2021,03,30,15,45,10.00
2021,03,30,15,46,9.90
2021,03,30,15,47,9.90
2021,03,30,15,48,9.90
2021,03,30,15,49,9.90
2021,03,30,15,50,9.90
2021,03,30,15,51,9.90
2021,03,30,15,52,9.90
2021,03,30,15,53,9.90
2021,03,30,15,54,9.80
2021,03,30,15,55,9.90
2021,03,30,15,56,9.90
2021,03,30,15,57,9.90
2021,03,30,15,58,9.90
2021,03,30,15,59,9.90
2021,03,30,16,00,9.90
2021,03,30,16,01,10.00
2021,03,30,16,02,10.10
2021,03,30,16,03,10.10
2021,03,30,16,04,10.10
2021,03,30,16,05,10.20
2021,03,30,16,06,10.20
2021,03,30,16,07,10.20
2021,03,30,16,08,10.20
2021,03,30,16,09,10.20
2021,03,30,16,10,10.20
2021,03,30,16,11,10.20
2021,03,30,16,12,10.30
2021,03,30,16,13,10.30
2021,03,30,16,14,10.30
2021,03,30,16,15,10.30
2021,03,30,16,16,10.30
2021,03,30,16,17,10.30
2021,03,30,16,18,10.40
2021,03,30,16,19,10.40
2021,03,30,16,20,10.40
2021,03,30,16,21,10.40
2021,03,30,16,22,10.40
2021,03,30,16,23,10.40
2021,03,30,16,24,10.40
2021,03,30,16,25,10.40
2021,03,30,16,26,10.40
2021,03,30,16,27,10.40
2021,03,30,16,28,10.40
2021,03,30,16,29,10.40
2021,03,30,16,30,10.40
2021,03,30,16,31,10.40
2021,03,30,16,32,10.40
2021,03,30,16,33,10.40
2021,03,30,16,34,10.50
2021,03,30,16,35,10.50
2021,03,30,16,36,10.50
2021,03,30,16,37,10.40
2021,03,30,16,38,10.40
2021,03,30,16,39,10.40
2021,03,30,16,40,10.50
2021,03,30,16,41,10.50
2021,03,30,16,42,10.50
2021,03,30,16,43,10.50
2021,03,30,16,44,10.60
2021,03,30,16,45,10.60
2021,03,30,16,46,10.60
2021,03,30,16,47,10.70
2021,03,30,16,48,10.70
2021,03,30,16,49,10.80
2021,03,30,16,50,10.80
2021,03,30,16,51,10.80
2021,03,30,16,52,10.70
2021,03,30,16,53,10.70
2021,03,30,16,54,10.70
2021,03,30,16,55,10.70
2021,03,30,16,56,10.70
2021,03,30,16,57,10.60
2021,03,30,16,58,10.60
2021,03,30,16,59,10.60
2021,03,30,17,00,10.60
2021,03,30,17,01,10.60
2021,03,30,17,02,10.50
2021,03,30,17,03,10.50
2021,03,30,17,04,10.40
2021,03,30,17,05,10.40
2021,03,30,17,06,10.40
2021,03,30,17,07,10.40
2021,03,30,17,08,10.40
2021,03,30,17,09,10.40
2021,03,30,17,10,10.40
2021,03,30,17,11,10.40
2021,03,30,17,12,10.40
2021,03,30,17,13,10.40
2021,03,30,17,14,10.40
2021,03,30,17,15,10.40
2021,03,30,17,16,10.40
2021,03,30,17,17,10.40
2021,03,30,17,18,10.40
2021,03,30,17,19,10.30
2021,03,30,17,20,10.40
2021,03,30,17,21,10.40
2021,03,30,17,22,10.30
2021,03,30,17,23,10.30
2021,03,30,17,24,10.30
2021,03,30,17,25,10.30
2021,03,30,17,26,10.30
2021,03,30,17,27,10.30
2021,03,30,17,28,10.30
2021,03,30,17,29,10.30
2021,03,30,17,30,10.30
2021,03,30,17,31,10.30
2021,03,30,17,32,10.30
2021,03,30,17,33,10.30
2021,03,30,17,34,10.30
2021,03,30,17,35,10.30
2021,03,30,17,36,10.30
2021,03,30,17,37,10.30
2021,03,30,17,38,10.30
2021,03,30,17,39,10.30